SR2ATJ-13 Weather Reports


time (UTC)temp
C
wind
direction
speed
KPH
gust
KPH
rain 1hr
cm
rain 24hr
cm
rain mn
cm
humidity
%
barometer
mb
20260504100503 25 0.0 0.0 0.00 0.00 0.00 34 1011.8
20260504045503 13 0.0 0.0 0.00 0.00 0.00 54 1011.1
20260504044504 13 0.0 0.0 0.00 0.00 0.00 55 1011.0
20260504043503 12 0.0 0.0 0.00 0.00 0.00 56 1011.0
20260504042503 12 0.0 0.0 0.00 0.00 0.00 56 1011.0
20260504041503 12 0.0 0.0 0.00 0.00 0.00 56 1011.0
20260504040503 12 0.0 0.0 0.00 0.00 0.00 56 1010.9
20260504035504 12 0.0 0.0 0.00 0.00 0.00 56 1011.0
20260504034503 12 0.0 0.0 0.00 0.00 0.00 56 1010.9
20260504033503 12 0.0 0.0 0.00 0.00 0.00 56 1011.0
20260504032504 12 0.0 0.0 0.00 0.00 0.00 55 1011.1
20260504031504 12 0.0 0.0 0.00 0.00 0.00 55 1011.1
20260504025503 12 0.0 0.0 0.00 0.00 0.00 53 1011.0
20260504023504 13 0.0 0.0 0.00 0.00 0.00 53 1011.0
20260504022503 13 0.0 0.0 0.00 0.00 0.00 53 1011.0
20260504021503 13 0.0 0.0 0.00 0.00 0.00 53 1011.0
20260504020502 13 0.0 0.0 0.00 0.00 0.00 53 1011.0
20260504015503 12 0.0 0.0 0.00 0.00 0.00 53 1011.0
20260504014504 12 0.0 0.0 0.00 0.00 0.00 53 1011.0
20260504013503 12 0.0 0.0 0.00 0.00 0.00 52 1011.1
20260504012502 13 0.0 0.0 0.00 0.00 0.00 52 1011.2
20260504011502 13 0.0 0.0 0.00 0.00 0.00 52 1011.2
20260504010503 13 0.0 0.0 0.00 0.00 0.00 51 1011.1
20260504004502 13 0.0 0.0 0.00 0.00 0.00 51 1011.1
20260504003502 13 0.0 0.0 0.00 0.00 0.00 50 1011.1
20260504001503 13 0.0 0.0 0.00 0.00 0.00 49 1011.1
20260503235502 13 0.0 0.0 0.00 0.00 0.00 48 1011.1
20260503234503 13 0.0 0.0 0.00 0.00 0.00 48 1011.2
20260503233503 13 0.0 0.0 0.00 0.00 0.00 47 1011.3
20260503232503 14 0.0 0.0 0.00 0.00 0.00 47 1011.3
20260503231504 14 0.0 0.0 0.00 0.00 0.00 46 1011.2
20260503225503 14 0.0 0.0 0.00 0.00 0.00 46 1011.3
20260503224502 14 0.0 0.0 0.00 0.00 0.00 46 1011.2
20260503223504 14 0.0 0.0 0.00 0.00 0.00 46 1011.3
20260503222505 14 0.0 0.0 0.00 0.00 0.00 46 1011.3
20260503221505 14 0.0 0.0 0.00 0.00 0.00 46 1011.4
20260503220503 15 0.0 0.0 0.00 0.00 0.00 47 1011.4
20260503215503 15 0.0 0.0 0.00 0.00 0.00 45 1011.5
20260503214504 15 0.0 0.0 0.00 0.00 0.00 42 1011.4
20260503213503 16 0.0 0.0 0.00 0.00 0.00 41 1011.4
20260503212503 16 0.0 0.0 0.00 0.00 0.00 41 1011.4
20260503211503 16 0.0 0.0 0.00 0.00 0.00 41 1011.4
20260503210503 16 0.0 0.0 0.00 0.00 0.00 41 1011.4
20260503205504 16 0.0 0.0 0.00 0.00 0.00 41 1011.4
20260503204503 15 0.0 0.0 0.00 0.00 0.00 42 1011.5
20260503202507 15 0.0 0.0 0.00 0.00 0.00 43 1011.6
20260503201504 16 0.0 0.0 0.00 0.00 0.00 41 1011.7
20260503200503 16 0.0 0.0 0.00 0.00 0.00 39 1011.7
20260503195505 16 0.0 0.0 0.00 0.00 0.00 38 1011.7
20260503194503 16 0.0 0.0 0.00 0.00 0.00 38 1011.7
20260503193503 16 0.0 0.0 0.00 0.00 0.00 38 1011.8
20260503191503 17 0.0 0.0 0.00 0.00 0.00 35 1011.7
20260503190503 18 0.0 0.0 0.00 0.00 0.00 32 1011.6
20260503185503 18 0.0 0.0 0.00 0.00 0.00 32 1011.5
20260503184503 18 0.0 0.0 0.00 0.00 0.00 32 1011.5
20260503183503 18 0.0 0.0 0.00 0.00 0.00 32 1011.4
20260503182505 19 0.0 0.0 0.00 0.00 0.00 32 1011.4
20260503181505 20 0.0 0.0 0.00 0.00 0.00 31 1011.4
20260503180503 20 0.0 0.0 0.00 0.00 0.00 29 1011.2
20260503175503 21 0.0 0.0 0.00 0.00 0.00 29 1011.2
20260503174503 21 0.0 0.0 0.00 0.00 0.00 28 1011.1
20260503173503 22 0.0 0.0 0.00 0.00 0.00 27 1011.1
20260503172503 22 0.0 0.0 0.00 0.00 0.00 26 1011.0
20260503171504 23 0.0 0.0 0.00 0.00 0.00 26 1011.0
20260503150503 26 0.0 0.0 0.00 0.00 0.00 23 1011.5
20260503130503 27 0.0 0.0 0.00 0.00 0.00 24 1012.8
20260503110503 28 0.0 0.0 0.00 0.00 0.00 23 1013.8